Regional Weather Roundup
Issued by NWS Jackson, KY

Home | Current Version | Previous Version | Graphics & Text | Print | Product List | Glossary On
Versions: 1 2 3 4 5 6 7 8 9 10 11 12 13 14 15 16 17 18 19 20 21 22 23 24 25 26 27 28 29 30 31 32 33 34 35 36 37 38 39 40 41 42 43 44 45 46 47 48 49 50
000
ASUS43 KJKL 241510
RWRJKL

EAST KENTUCKY HOURLY WEATHER ROUNDUP
NATIONAL WEATHER SERVICE JACKSON KY
1100 AM EDT FRI APR 24 2015

NOTE: "FAIR" INDICATES FEW OR NO CLOUDS BELOW 12,000 FEET WITH
NO SIGNIFICANT WEATHER AND/OR OBSTRUCTIONS TO VISIBILITY.

* THESE REPORTS ARE NOT UNDER NWS QUALITY CONTROL AND MAY NOT
  REPORT WEATHER SUCH AS PRECIPITATION AND FOG.

KYZ079-080-083-085-087-088-110-112-115-119-120-241600
...EASTERN KENTUCKY...

CITY           SKY/WX    TMP DP  RH WIND       PRES   REMARKS
JACKSON        SUNNY     49  22  34 VRB5      30.16R
LONDON         SUNNY     53  22  29 SE7       30.14F
SOMERSET*      SUNNY     52  25  35 SE5       30.16S
MONTICELLO*    SUNNY     55  26  32 SE8       30.17F
MIDDLESBORO*   SUNNY     54  24  31 E5        30.15F
HARLAN APT*    SUNNY     52  19  28 SW5       30.13F
BLACK MTN*       N/A     43  12  28 SE2         N/A
PIKEVILLE APT* SUNNY     50  23  34 NW7       30.15S
BIG SANDY*     MOSUNNY   51  24  35 E5        30.16F
MOREHEAD APT*  SUNNY     50  23  34 VRB5      30.17S
$$

KYZ035-036-041-042-044-050-067-078-099-241600
...CENTRAL KENTUCKY...

CITY           SKY/WX    TMP DP  RH WIND       PRES   REMARKS
MT STERLING*   SUNNY     50  27  40 S7        30.17R
FLEMING/MASON* SUNNY     50  28  43 SE5       30.16F
DANVILLE*      SUNNY     54  27  35 E6        30.15F
RICHMOND*      SUNNY     54  23  30 E3        30.15R
LEXINGTON      SUNNY     52  29  41 SE7       30.15R
FRANKFORT      SUNNY     52  27  38 S5        30.13S
$$

KYZ091>093-OHZ055-061-077-WVZ005-015-034-035-042-241600
...SOUTHERN OHIO/WEST VIRGINIA...

CITY           SKY/WX    TMP DP  RH WIND       PRES   REMARKS
COVINGTON      PTSUNNY   51  27  39 S8        30.13F
COLUMBUS       SUNNY     47  24  40 W7        30.13S
DAYTON         SUNNY     51  25  36 SW10      30.13S
WILMINGTON     SUNNY     49  25  39 VRB6      30.13S
HUNTINGTON     MOSUNNY   49  20  31 E7        30.15S
CHARLESTON     MOSUNNY   50  18  28 VRB6      30.15S
PINEVILLE*     SUNNY     50  22  33 MISG      30.18S
BECKLEY        SUNNY     45  16  31 N14G21    30.11R
BLUEFIELD      SUNNY     47  15  27 VRB5      30.10S
$$

VAZ002-007-008-TNZ017-027-036-066-071-241600
...SOUTHWEST VIRGINIA/EAST TENNESSEE...

CITY           SKY/WX    TMP DP  RH WIND       PRES   REMARKS
WISE*          SUNNY     46  18  31 NW5       30.14R
JONESVILLE*    SUNNY     50  21  32 CALM      30.16S
ABINGDON*      SUNNY     51  18  27 CALM      30.12S
BRISTOL        MOSUNNY   52  21  29 VRB3      30.14S
KNOXVILLE      MOSUNNY   56  24  29 NE10      30.13S
OAK RIDGE      SUNNY     58  27  30 CALM      30.15F
CROSSVILLE     SUNNY     55  21  26 VRB5      30.11F
NASHVILLE      PTSUNNY   60  25  26 E10       30.12F
$$

...KEY TO REMARKS...
VSB - VISIBILITY IN MILES
WCI - WIND CHILL INDEX
HX  - HEAT INDEX

$$


USA.gov is the U.S. government's official web portal to all federal, state and local government web resources and services.